Regional Weather Roundup
Issued by NWS Little Rock, AR

Home | Current Version | Previous Version | Graphics & Text | Print | Product List | Glossary On
Versions: 1 2 3 4 5 6 7 8 9 10 11 12 13 14 15 16 17 18 19 20 21 22 23 24 25 26 27 28 29 30 31 32 33 34 35 36 37 38 39 40 41 42 43 44 45 46 47 48 49 50
000
ASUS44 KLZK 090405
RWRLZK

WEATHER ROUNDUP FOR ARKANSAS
NATIONAL WEATHER SERVICE LITTLE ROCK AR
1000 PM CST MON FEB 08 2016

NOTE: "FAIR" INDICATES FEW OR NO CLOUDS BELOW 12,000 FEET WITH NO
SIGNIFICANT WEATHER AND/OR OBSTRUCTIONS TO VISIBILITY.

ARZ001-003-010-029-090500-
NORTHWEST ARKANSAS

CITY           SKY/WX    TMP DP  RH WIND       PRES   REMARKS
FAYETTEVILLE   PTCLDY    32  14  47 NW9       30.11S WCI  24
FORT SMITH     PTCLDY    39  10  30 NW12      30.16R
HARRISON       CLEAR     30  14  51 NW13G24   30.03S WCI  20
BENTONVILLE    PTCLDY   N/A N/A N/A N10G18    30.10F
ROGERS         PTCLDY    32  15  49 NW17G25   30.09F WCI  21
SILOAM SPGS    CLOUDY    34  10  37 NW14G21   30.12S WCI  24
HIGHFILL       PTCLDY    33  14  45 NW14      30.10S WCI  23
$$

ARZ004-005-016-090500-
NORTH CENTRAL ARKANSAS

CITY           SKY/WX    TMP DP  RH WIND       PRES   REMARKS
BATESVILLE     CLOUDY    37  14  38 W14G26    30.03S
FLIPPIN        PTCLDY   N/A N/A N/A NW18G29   30.01F
MTN HOME       MOCLDY    32  15  49 NW9G23    30.01F WCI  24
$$

ARZ040-041-090500-
WEST CENTRAL ARKANSAS

CITY           SKY/WX    TMP DP  RH WIND       PRES   REMARKS
MENA           PTCLDY    41  14  33 NW9G21    30.12S
MOUNT IDA      CLEAR     40  12  32 NW12G20   30.08S
$$

ARZ009-017-025-026-028-090500-
NORTHEAST ARKANSAS

CITY           SKY/WX    TMP DP  RH WIND       PRES   REMARKS
CORNING        FAIR      32  19  59 NW22G30   29.99F WCI  19
JONESBORO      CLOUDY    33  21  61 NW13      30.00S WCI  24
NEWPORT        CLOUDY    35  18  50 NW12      30.03F WCI  27
WALNUT RIDGE   MOCLDY    32  19  59 NW18      30.01F WCI  20
BLYTHEVILLE    CLOUDY    35  21  56 NW18      29.99S WCI  24
$$

ARZ022-023-033-042-044-090500-
CENTRAL ARKANSAS

CITY           SKY/WX    TMP DP  RH WIND       PRES   REMARKS
LITTLE ROCK    CLEAR     37  17  44 VRB5      30.08S
N LITTLE ROCK  CLEAR     36  19  49 NW6       30.08S
JACKSONVILLE   CLEAR     33  17  51 W6        30.06S WCI  28
SEARCY         MOCLDY    37  18  44 NW15G22   30.07S
HOT SPRINGS    CLEAR     41  13  31 NW15G31   30.10R
RUSSELLVILLE   CLEAR     38  14  37 NW9G20    30.08S
CLINTON        FAIR      36  14  41 NW5       30.06S
$$

ARZ036-090500-
EAST ARKANSAS

CITY           SKY/WX    TMP DP  RH WIND       PRES   REMARKS
WEST MEMPHIS   CLOUDY    35  23  61 NW5       30.02S WCI  31
$$

ARZ050-053-066-070-073-090500-
SOUTHWEST ARKANSAS

CITY           SKY/WX    TMP DP  RH WIND       PRES   REMARKS
ARKADELPHIA    FAIR      42  14  32 W10       30.12S
CAMDEN         MIX PCPN  41  10  28 NW5       30.12S
TEXARKANA      CLEAR     43  13  29 NW13      30.15S
EL DORADO      CLEAR     40  14  34 W7        30.13R
DE QUEEN       CLEAR     43  14  31 NW12      30.14F
$$

ARZ056-057-069-090500-
SOUTHEAST ARKANSAS

CITY           SKY/WX    TMP DP  RH WIND       PRES   REMARKS
PINE BLUFF     CLEAR     36  18  48 W5        30.09S
STUTTGART      PTCLDY    36  21  55 NW9       30.07S
MONTICELLO     CLEAR     31  20  63 CALM      30.08S

$$





USA.gov is the U.S. government's official web portal to all federal, state and local government web resources and services.